Volver al catálogo

COSMOS 862 DEB

LostHEO
NORAD 9902·DEBRIS·🇷🇺 Russia

Lanzado Oct 22, 1976 desde Plesetsk Cosmodrome

Loading…

Próximos Pases (próximas 24 horas)

TLE

ObsoletoSource: Space-Track

Época: Jan 4, 1993, 17:14 UTC

1  9902U 76105P   93004.71873481 -.00000754 +00000-0 +10000-3 0  9995
2  9902 064.5621 291.0928 7203762 192.8685 127.6131 01.98028326005637

Sigue COSMOS 862 DEB en tiempo real con AllMySat

Download on the App Store